Showing default

ESTRELA DU SOL-TELSTAR14, 28137

Orbit data source: Space-Track

ESTRELA DU SOL-TELSTAR14, 28137 is a payload satellite owned by Loral Sky Brazil (US,BR) in GEO that was launched on Sun, 11 Jan 2004 UTC via a ZENIT-3SL launch vehicle from the Sea Launch (SEAL). Payload-class satellites include a variety of spacecraft equipped with specific instruments for various scientific and technological missions. These include communications satellites like Starlink; space stations such as the ISS; scientific satellites like the Hubble; Earth observation satellites from companies like Planet Labs, Umbra, and HawkEye 360; GPS; miniature CubeSats for education and research; and military/defense satellites.

Not visible in the next 10 days
Identifier
28137, 2004-001A
Orbit
GEO
Last TLE update
16 hours ago
Origin
Manufacturer
SS/Loral
Mission
Non-operational Commercial Communications
Bus & Motor
SSL-1300, R-4D-11-164
Mass
4,694 kg wet, ~2,000 kg dry
Launch date (UTC)
2004-01-11 (21 years ago)
Launch vehicle
ZENIT-3SL
Launch site
Sea Launch (SEAL)
Object type
Payload
Rocket body
Debris
Shape & HBR
Box + 2 Pan, 31 m
Radar Cross Section
40.765 m², Large (>1 m²)

Expand to show TLE details & history

TLE from 16 hours ago
0 ESTRELA DU SOL-TELSTAR14
1 28137U 04001A   25183.85238721 -.00000179  00000-0  00000-0 0  9999
2 28137  10.3619  47.5548 0005303  31.0979 150.5641  0.98834181 78139
Epoch: 2025-07-02T20:27Z
TLE epoch observation values (Epoch: 2025-07-02T20:27:26.254Z)
Latitude
-0.30845°
Longitude
1.24614°
Altitude
36,213.752 km
Speed
3.059 km/s
True Right ascension
15h 16m 55s
True Declination
0° 18' 29"
Sunlit
Object was in daylight at epoch
Visualization orbit readout
Latitude
8.62545°
Longitude
-124.60212°
Altitude
36,172.807 km
Speed
3.062 km/s
Apparent Right ascension
07h 18m 50s
Apparent Declination
3° 02' 22"
Sunlit
Object is in daylight
Visualization observer readout
Local Sidereal Time
00:03:25
Azimuth
75.309° E
Elevation
-12.329°
Doppler factor
1
Orbital elements
Apogee altitude
36,218.072 km
Perigee altitude
36,172.918 km
Semi-major axis
42,573.632 km
Eccentricity
0.00053
Inclination
10.3619°
RAAN
47.5548°
Arg. of periapsis
31.0979°
True anomaly
Unknown
Mean anomaly
150.5641°
Eccentric anomaly
Unknown
Mean motion
0.24708 °/min
Orbital period
1,457.04 mins
BSTAR
0
Loading historical data...
28137 neighbors
Loading maneuver chart data...
Loading SW <> Apogee altitude chart data...
Loading historical data...
Loading historical data...
Loading historical data...
Loading historical data...
Loading historical data...
Loading historical data...
Loading historical data...
Other satellites on launch #1 in the year 2004 (2004-01-11 UTC)

ESTRELA DU SOL-TELSTAR14 Visibility

Observer location: undefined°, undefined°

ESTRELA DU SOL-TELSTAR14 is likely not visible in the next few days
Span
Click to sort rows by Start time (UTC) header in descending order
Start Az.
Max El. time (UTC)
Max El. Az.
Max El.
End time (UTC)
End Az.
|